GFSSGP_850_spd_000.txt.gz
Wind_Speed
4 3 3 2 1 3 5 5 4 5 0 4 5 5 2 6 2 2 8 18 16 12 10 9 7 6 5 4 4 4 4 3 1 2 5 6 7 8 8 8 8 8 7 7 7 8 9 10 11
3 3 3 5 2 4 2 7 4 4 7 6 4 6 2 2 1 3 10 17 18 13 11 8 8 6 4 2 2 3 4 5 6 8 10 11 10 10 10 10 9 9 9 10 11 12 11 12 12
2 2 3 3 4 6 3 4 7 11 8 5 2 2 4 3 2 4 8 17 16 13 11 8 6 4 3 2 2 2 2 3 4 7 8 9 9 10 10 11 12 12 13 13 14 14 14 15 15
4 2 6 2 10 5 4 4 16 10 4 4 3 3 4 9 6 10 11 18 17 14 13 11 9 7 5 3 1 1 2 2 3 4 5 6 7 8 9 10 10 11 12 14 16 17 18 18 18
1 5 3 6 10 1 5 4 9 8 10 11 8 4 4 8 14 12 10 19 18 17 14 12 9 7 4 3 2 2 2 3 4 6 7 8 8 8 9 11 11 12 13 14 15 15 16 17 20
5 4 4 6 6 4 4 6 7 10 12 9 8 11 4 10 12 14 13 19 20 18 15 13 11 10 8 6 4 3 2 3 3 4 5 6 7 7 7 7 8 8 9 10 12 14 16 17 19
3 2 6 10 8 5 4 9 9 10 11 11 7 3 6 12 12 15 16 19 20 19 18 17 16 14 11 8 6 4 3 3 3 4 6 7 7 7 6 6 7 8 8 9 10 11 13 14 15
4 3 6 6 4 5 4 6 4 10 8 7 14 6 4 14 14 15 17 20 22 21 21 21 19 17 13 10 7 5 4 3 5 7 9 9 8 7 7 8 9 10 11 12 12 14 14 15 15
3 2 5 8 0 1 6 4 7 7 8 9 11 11 9 10 13 15 19 22 24 25 25 25 23 20 17 13 9 8 8 6 7 9 10 8 6 5 7 9 11 13 14 15 16 16 16 15 16
4 3 5 3 6 4 2 10 9 5 10 13 16 18 20 18 19 20 22 24 27 28 28 29 27 24 20 17 14 12 11 11 11 11 10 8 6 6 8 9 10 11 13 14 15 16 16 16 16
5 5 4 4 7 7 7 10 11 9 8 20 21 26 27 26 26 26 26 26 27 28 30 30 29 26 23 22 18 16 16 15 14 12 10 9 8 7 8 9 10 11 12 14 16 17 18 18 19
4 16 19 6 5 4 4 6 9 20 26 6 9 16 24 30 29 28 29 29 29 29 30 30 31 29 26 25 21 20 19 18 16 13 12 11 10 10 9 9 10 11 13 16 18 19 19 19 18
9 12 17 14 12 13 14 18 10 22 24 27 25 26 22 26 30 30 28 28 29 32 31 32 31 31 29 27 24 24 22 20 18 15 14 12 11 11 9 10 10 11 14 17 19 21 21 19 18
8 13 19 16 18 13 8 10 13 18 16 25 30 29 31 32 34 31 32 32 33 33 34 34 32 32 31 28 27 25 23 21 19 17 15 13 12 11 10 10 10 11 15 19 21 22 22 22 22
7 8 10 17 19 7 5 10 14 37 21 19 21 27 35 36 33 37 35 35 33 34 35 37 34 33 32 30 29 27 26 23 21 20 18 15 15 13 11 10 10 13 16 20 23 22 22 22 23
4 5 5 5 12 9 12 12 10 17 24 31 30 26 28 33 37 37 37 36 32 33 38 38 35 34 33 32 31 29 27 24 23 22 19 17 15 12 10 9 11 14 17 19 21 21 21 22 25
9 6 9 10 13 7 9 9 10 9 7 16 22 26 30 34 37 38 37 35 34 35 38 38 36 35 34 33 31 30 27 25 23 21 19 17 15 13 11 10 12 15 18 19 20 21 22 24 26
7 6 10 13 7 7 8 17 13 27 22 28 34 35 36 37 39 37 38 35 35 37 39 37 36 35 34 33 31 31 29 26 25 23 22 19 18 14 10 11 14 17 19 19 20 20 20 23 28
15 16 16 22 11 10 15 19 16 19 27 24 31 36 33 35 34 32 35 36 33 37 39 38 37 36 35 36 36 34 31 29 26 25 25 23 20 14 12 13 18 18 19 19 20 20 21 23 26
9 13 20 18 11 7 9 14 13 10 20 34 31 36 34 23 19 25 30 33 34 39 40 39 38 36 37 38 36 34 31 30 27 27 27 25 21 16 15 18 18 18 18 18 19 19 21 22 23
12 10 15 15 9 6 6 7 12 9 25 30 35 42 31 25 23 26 29 31 34 41 42 40 39 37 38 38 36 36 33 31 31 31 29 28 23 20 17 18 19 19 19 18 19 20 21 23 23
21 9 9 11 6 6 4 15 8 6 12 11 27 38 25 21 22 27 30 30 35 38 38 38 37 37 38 39 40 41 39 38 35 31 30 30 26 24 21 19 20 20 19 19 21 22 21 23 25
6 2 2 4 6 6 5 9 5 9 9 11 13 34 30 20 26 27 29 29 30 33 36 36 37 37 39 41 42 40 39 36 32 32 32 31 29 26 23 20 21 20 19 21 23 23 21 23 26
3 1 3 3 2 9 11 12 3 6 8 6 9 30 29 18 20 19 23 26 29 30 34 35 36 38 39 41 42 40 39 39 38 36 34 32 31 28 24 22 22 21 21 22 24 24 24 25 27
4 3 3 4 1 15 10 10 16 5 8 11 13 25 22 23 21 18 25 30 32 33 35 37 37 39 41 41 40 41 40 41 42 39 36 35 33 29 25 24 23 21 22 23 25 25 25 26 28
9 9 6 7 10 21 2 9 9 11 12 20 31 33 16 20 19 20 26 30 32 33 35 37 38 40 42 41 37 40 41 42 43 41 39 37 34 31 28 25 23 22 23 25 26 25 26 27 27
6 6 4 1 2 4 12 14 11 11 11 10 13 15 15 16 17 20 23 28 31 32 33 36 39 40 41 40 37 39 42 44 44 43 40 37 35 33 28 26 24 24 24 25 25 25 25 25 26
4 1 2 2 2 7 18 13 16 13 18 9 6 8 13 15 18 18 23 28 31 30 31 35 39 42 41 40 39 39 41 44 45 44 42 39 37 33 29 27 25 24 24 25 24 23 23 24 25
2 4 5 1 5 7 10 15 4 6 5 8 8 7 7 10 16 18 21 28 30 30 32 36 39 43 44 45 43 42 42 44 46 45 43 40 37 34 30 26 25 24 24 24 23 22 23 24 26
6 11 12 10 16 4 12 23 5 5 9 10 8 10 16 20 18 18 19 25 29 31 33 35 40 44 47 47 45 44 44 45 46 46 43 39 36 32 27 26 25 24 23 22 22 23 23 26 28

GFSSGP_850_spd_003.txt.gz
Wind_Speed
3 4 3 2 4 5 4 5 2 2 2 3 9 4 6 3 1 3 15 15 14 16 15 12 11 10 10 8 6 6 7 7 4 3 3 4 3 4 5 4 4 4 3 3 2 5 5 6 6
3 4 2 1 3 2 5 2 4 1 5 4 5 3 5 1 1 6 17 18 17 18 15 13 11 10 9 9 7 6 6 6 6 6 7 6 5 5 6 6 6 6 6 6 8 9 8 8 9
3 2 1 3 2 3 3 4 7 6 7 4 3 1 1 4 5 5 10 16 20 17 15 12 12 11 10 9 8 7 7 7 8 7 6 5 5 6 7 8 9 9 10 10 11 11 11 11 11
2 1 1 3 7 7 4 4 8 9 4 6 4 2 4 9 5 6 8 13 20 19 16 14 14 13 11 11 10 9 8 7 6 4 3 3 4 5 6 6 7 8 9 10 11 12 12 12 13
2 1 1 2 6 5 2 15 13 5 6 8 8 4 4 10 14 11 9 15 21 21 19 17 15 14 12 11 10 8 7 5 4 3 2 2 3 5 6 6 7 7 7 7 8 9 10 12 12
2 1 2 3 4 3 3 10 11 7 7 8 7 3 5 9 13 12 13 15 21 22 20 19 17 16 16 12 8 6 5 4 3 2 1 1 2 3 3 4 4 4 4 5 6 6 7 8 8
2 3 4 5 6 5 3 9 6 9 10 12 7 6 5 14 14 14 15 17 20 22 22 21 20 20 16 12 10 9 8 6 5 2 1 2 3 2 1 1 2 4 5 6 7 9 9 9 9
2 3 4 4 4 5 7 6 4 9 8 9 16 7 6 15 16 15 18 20 22 23 24 23 22 21 19 16 13 11 9 8 7 5 3 3 3 2 1 1 3 4 6 7 8 10 12 12 12
2 3 3 5 3 2 6 4 6 6 8 9 14 14 12 10 14 18 21 23 25 26 26 27 26 24 22 20 17 15 13 11 9 6 4 5 6 4 4 4 6 7 9 10 11 13 13 13 14
4 3 6 4 3 4 3 7 8 6 9 11 18 22 24 22 21 23 25 26 27 27 29 29 29 28 25 23 20 18 16 13 11 8 7 7 7 8 7 7 7 8 9 10 12 14 15 16 16
5 6 5 6 8 6 4 4 8 9 7 21 25 31 30 29 28 29 30 30 28 27 29 30 31 30 29 27 24 22 19 17 15 12 11 11 11 11 10 8 8 9 9 11 13 14 16 16 17
5 13 19 16 16 8 4 7 7 18 31 13 12 20 29 33 32 31 30 30 30 31 31 31 32 33 32 30 28 25 22 19 17 16 15 13 13 12 11 10 10 9 10 12 13 15 17 19 18
6 6 14 18 16 17 15 17 12 27 30 27 30 30 29 28 34 35 34 32 31 33 33 33 34 35 35 34 32 29 26 23 21 20 18 16 15 14 13 13 11 10 12 13 15 17 18 18 17
5 10 14 21 29 19 10 8 8 32 27 24 32 36 34 36 37 35 37 38 37 35 34 34 35 36 37 36 34 31 28 26 24 23 21 19 17 16 15 13 12 11 12 14 17 18 18 18 17
6 8 9 22 24 7 11 10 14 41 30 25 25 29 33 40 38 40 37 39 38 37 35 35 36 35 36 36 35 33 30 29 27 25 23 21 20 17 15 14 13 12 12 15 16 17 18 17 17
3 2 5 7 8 6 12 17 12 13 21 29 35 36 32 34 39 40 39 38 38 37 37 35 36 37 36 35 36 34 32 30 27 25 24 22 21 19 17 15 14 13 14 15 17 17 17 17 19
3 6 8 12 10 6 5 12 11 20 23 32 34 32 36 40 39 41 40 39 39 39 39 39 39 39 37 34 35 34 32 30 28 26 25 24 24 21 18 16 15 12 13 14 15 16 18 18 19
7 6 7 9 4 3 6 19 17 27 18 21 26 29 37 42 49 45 42 41 42 40 39 40 40 39 37 34 36 35 33 32 29 28 27 27 26 24 20 18 15 12 12 14 15 15 16 18 22
5 6 9 18 10 10 17 18 21 27 23 24 37 43 48 52 52 42 37 36 43 43 42 42 41 40 38 39 40 39 38 35 33 31 30 28 27 25 21 19 15 12 12 15 16 15 16 17 21
10 14 15 15 12 10 14 21 16 9 16 28 30 40 51 40 41 35 29 32 42 45 43 41 40 39 39 39 39 40 38 37 33 32 31 29 28 27 24 21 16 13 14 16 16 17 17 17 20
19 14 19 19 10 6 9 11 12 11 16 30 39 47 50 42 39 31 30 31 39 44 44 41 39 38 39 38 38 39 36 34 36 37 34 32 31 30 27 24 19 14 14 17 17 17 17 17 17
22 10 14 8 4 13 4 16 9 7 12 10 26 44 36 40 35 29 30 33 40 43 40 37 35 37 39 39 40 42 43 44 45 40 36 34 33 32 30 26 20 16 15 19 18 17 17 18 18
20 4 5 2 4 5 5 6 3 8 8 12 16 37 44 37 30 27 29 32 38 39 37 35 34 36 38 39 40 43 44 43 40 37 35 35 34 33 32 28 24 19 16 19 18 17 18 20 20
2 1 1 2 2 12 8 9 5 7 9 6 11 32 37 33 24 24 30 33 35 34 34 35 36 37 38 38 40 42 44 43 41 39 39 38 36 35 34 31 27 22 18 20 19 18 20 21 21
3 5 4 4 1 12 11 10 21 6 8 11 14 29 31 31 19 20 33 33 33 36 36 36 38 39 39 38 38 38 43 43 43 41 41 40 39 39 36 33 29 24 19 20 20 21 22 22 22
10 10 7 7 9 18 3 9 8 10 14 27 35 38 33 25 17 26 28 29 31 35 36 37 40 41 40 40 39 39 41 43 44 44 44 42 41 37 34 33 31 26 21 21 22 22 23 23 21
5 6 11 2 3 2 10 13 10 8 11 11 20 17 27 24 23 27 25 24 28 34 37 37 39 43 43 43 42 42 41 43 44 44 45 44 40 36 35 34 30 26 22 22 23 24 23 23 20
6 1 1 1 3 7 15 6 14 14 20 16 11 10 17 21 21 21 20 21 25 29 34 37 39 44 47 46 46 45 43 42 44 45 44 44 41 39 37 34 31 27 23 23 25 25 24 22 18
1 4 5 2 4 12 14 15 6 2 6 10 8 11 14 14 15 15 16 19 21 26 31 36 39 42 46 48 50 49 48 47 46 45 46 45 43 41 38 34 31 27 24 25 25 25 23 21 18
5 6 6 9 10 3 6 16 10 5 4 10 6 10 12 7 8 14 15 17 21 25 28 32 39 40 40 48 52 54 52 51 48 46 47 45 43 41 38 35 32 29 27 28 26 24 23 21 18

GFSSGP_850_spd_006.txt.gz
Wind_Speed
4 4 3 1 4 5 4 5 1 2 1 2 4 3 6 4 5 4 6 13 14 18 18 18 15 15 16 14 13 12 11 10 10 10 9 6 5 5 5 5 5 5 6 5 5 4 3 3 4
4 4 2 2 4 2 5 5 5 4 4 8 6 6 2 5 5 4 13 15 16 18 19 17 16 17 17 15 13 14 14 14 14 13 11 8 8 8 8 7 6 6 6 6 8 6 5 6 6
4 3 1 4 3 4 4 5 6 3 6 6 4 3 3 4 9 6 12 14 17 19 20 19 18 17 17 16 15 16 16 15 14 11 8 8 8 8 7 7 8 8 9 9 10 10 10 10 10
4 2 2 3 5 7 6 5 6 6 4 5 3 2 4 8 4 7 12 13 18 21 22 20 20 18 17 17 17 15 14 13 10 8 8 7 7 6 7 7 7 7 8 9 10 10 10 10 10
4 2 2 1 5 6 6 5 16 5 4 6 8 4 5 8 13 9 10 12 17 22 25 22 21 19 18 17 15 14 13 10 9 8 7 6 6 5 6 6 6 6 7 7 7 7 7 7 8
2 2 2 3 5 5 4 10 9 6 6 4 5 3 5 10 14 13 13 13 16 21 24 23 22 20 19 18 17 15 13 11 10 8 6 4 3 3 3 3 2 2 2 2 3 4 5 5 6
4 3 4 4 5 5 5 12 7 7 8 8 5 6 6 13 13 14 13 15 17 22 25 24 22 21 20 20 18 16 15 14 13 11 9 6 5 4 3 3 2 1 1 2 4 5 6 7 7
2 4 3 4 3 6 2 7 3 10 11 7 15 7 6 11 16 17 17 18 20 23 26 26 25 24 24 24 21 18 16 15 14 12 10 8 6 6 5 4 3 2 2 4 6 7 8 9 9
3 3 3 5 3 5 2 3 5 5 7 11 13 19 13 8 16 20 22 24 25 26 27 29 28 28 28 27 23 20 18 16 15 13 10 8 7 7 7 6 5 4 5 5 6 8 10 11 13
4 3 8 6 2 4 4 8 8 5 10 11 19 24 25 21 19 24 26 28 29 28 29 31 31 31 31 30 26 23 22 21 19 17 14 11 9 8 8 8 7 7 7 8 9 10 12 12 13
6 6 6 9 11 10 5 6 9 7 9 19 24 28 29 29 28 29 30 31 30 28 31 31 32 33 33 32 29 27 26 24 22 19 16 13 11 10 10 10 10 10 9 9 10 12 13 15 15
4 15 17 14 21 6 5 7 7 19 36 28 24 20 23 30 34 35 34 33 32 32 32 32 33 34 35 33 32 29 28 26 25 22 19 16 13 12 12 13 13 12 11 11 12 13 15 16 17
7 7 17 23 21 19 16 19 13 27 41 31 28 29 30 29 31 32 34 35 35 35 34 34 35 36 36 36 35 34 31 29 26 24 21 19 17 16 15 14 14 13 12 12 13 14 16 17 17
3 10 15 18 28 24 9 14 8 40 36 29 25 36 39 39 41 39 39 40 40 38 38 36 37 37 37 38 37 36 34 30 29 26 23 21 20 19 18 17 16 15 13 13 15 16 17 18 17
5 8 8 15 16 8 9 8 11 40 33 35 31 31 30 34 38 41 39 39 39 37 38 39 38 39 39 39 38 38 35 34 32 29 27 25 24 23 22 19 17 16 16 16 17 17 18 18 18
3 1 5 2 8 5 12 14 13 25 27 32 32 33 34 36 38 39 40 40 40 38 38 37 39 41 41 41 40 39 38 36 34 32 30 28 27 26 23 21 19 17 16 17 18 18 19 19 19
2 6 8 12 14 5 7 11 11 12 21 27 33 36 39 41 41 44 44 41 39 39 39 38 40 42 42 41 39 39 39 38 35 33 32 30 29 27 26 23 21 19 18 18 18 17 18 18 19
8 6 6 8 4 5 7 16 15 30 17 27 35 37 41 42 48 44 43 42 42 40 42 41 41 41 42 40 38 38 39 39 37 35 34 32 31 30 27 25 23 21 19 17 16 17 17 18 19
3 6 8 7 10 6 10 17 18 32 22 23 35 41 46 54 58 57 49 40 38 42 46 47 45 43 42 43 43 43 43 42 41 38 36 35 33 31 29 28 26 22 19 16 14 15 16 17 19
12 18 20 16 15 6 16 23 19 12 23 34 32 41 47 50 53 56 48 36 32 35 41 47 48 45 43 44 44 43 42 42 41 38 38 36 34 32 31 30 28 24 20 16 13 14 16 17 17
15 15 18 19 6 5 9 20 12 14 24 36 38 46 49 56 54 53 46 36 32 35 38 44 47 45 43 43 43 43 41 40 40 42 41 39 36 34 33 32 30 26 23 17 13 14 16 16 16
24 12 14 9 4 12 4 24 7 8 12 12 24 38 43 51 50 47 40 32 31 32 35 40 44 42 41 42 43 46 44 45 46 45 44 41 38 37 35 34 32 28 24 19 15 14 17 17 16
21 4 6 3 4 5 4 5 4 8 7 12 15 34 42 45 46 43 35 25 25 29 33 37 41 40 40 41 42 43 44 42 42 43 43 41 40 39 37 35 33 31 27 22 17 14 17 17 17
1 3 4 4 1 11 10 9 7 6 7 6 11 32 34 33 38 36 20 18 24 29 31 35 38 38 39 39 41 43 41 42 44 44 43 43 43 42 40 37 36 33 30 24 19 15 17 17 17
4 5 3 3 1 12 9 6 20 7 9 11 14 30 36 39 37 34 20 22 26 28 31 35 37 39 38 40 40 40 41 43 43 44 42 43 45 45 44 40 38 36 31 26 21 17 16 18 18
11 10 7 7 10 20 4 10 11 11 16 26 27 34 40 41 38 30 19 22 24 28 32 35 36 38 41 41 42 41 41 43 43 43 44 44 43 43 42 40 39 36 33 29 24 19 17 19 19
2 6 11 2 2 1 9 14 10 2 8 6 16 28 35 33 34 23 23 23 24 27 31 33 35 37 41 44 45 44 43 45 45 43 44 44 42 42 40 39 39 37 34 31 26 22 18 20 22
7 3 1 2 5 8 11 6 15 9 5 8 15 22 40 26 21 21 19 18 21 23 27 29 34 38 42 44 45 46 45 46 45 43 43 45 45 43 40 41 41 38 35 31 28 24 21 22 23
2 5 5 3 4 12 16 14 6 8 1 6 12 27 32 21 5 5 9 14 17 20 25 28 35 41 43 42 45 49 49 50 49 46 44 45 45 44 42 42 42 39 36 33 29 26 24 25 24
7 16 17 10 11 5 5 11 30 29 18 20 22 29 27 15 8 7 9 12 16 22 28 31 35 40 39 40 46 47 52 53 53 52 49 47 47 44 42 43 43 41 38 35 33 29 27 26 24

GFSSGP_850_spd_009.txt.gz
Wind_Speed
4 4 3 2 3 4 4 6 2 2 2 2 5 5 8 4 6 5 4 11 11 18 18 18 17 18 16 16 16 14 13 12 11 11 11 11 10 10 10 9 9 9 9 9 7 5 5 5 5
5 3 1 2 4 2 5 4 6 5 2 6 5 3 2 6 7 3 8 12 12 13 17 19 17 18 20 17 17 16 15 15 14 15 14 12 11 11 10 9 9 9 10 10 8 6 6 7 7
5 3 1 4 3 4 5 5 6 3 5 4 3 6 3 4 9 7 11 13 13 14 18 19 19 19 20 20 18 18 18 16 13 14 11 14 12 10 8 9 9 9 11 11 11 10 10 11 11
4 2 3 3 6 7 7 6 5 2 4 7 5 5 5 9 4 8 13 12 15 17 20 21 21 21 20 20 19 19 19 18 16 11 11 10 9 8 8 8 8 9 10 10 10 10 10 11 11
5 2 2 0 5 6 6 8 9 5 2 6 8 5 6 8 15 10 9 11 13 18 21 22 22 22 21 21 21 19 19 17 13 11 10 9 8 8 7 7 7 7 8 8 7 6 6 6 8
2 2 2 3 5 6 7 9 8 6 7 4 5 5 7 11 13 13 12 12 14 18 21 23 23 21 21 21 20 18 18 15 14 13 12 11 9 7 6 6 5 4 4 3 3 4 4 4 5
4 4 4 3 5 5 5 6 5 6 6 9 5 4 6 10 12 14 14 14 15 18 22 25 24 23 22 21 20 19 17 15 14 13 12 11 9 9 8 7 7 6 5 4 3 3 4 5 6
1 4 2 5 3 5 3 6 3 10 9 7 10 6 6 3 12 15 16 17 18 20 23 26 26 25 25 24 23 21 19 17 16 15 13 11 9 8 7 7 6 5 4 3 3 4 5 6 7
2 3 3 5 5 4 1 3 4 6 9 8 10 19 14 11 11 18 20 22 23 24 25 28 29 28 27 26 26 24 22 20 19 18 16 14 11 10 9 8 7 6 5 5 5 6 7 8 9
4 3 8 6 4 3 4 6 14 6 10 10 18 23 24 24 22 23 25 26 27 27 27 29 31 31 30 29 29 28 26 24 22 21 19 17 14 13 11 9 9 8 8 8 8 8 9 10 11
6 6 5 10 14 11 5 7 13 6 8 22 20 27 26 29 29 30 30 30 29 26 30 30 31 32 33 33 32 31 29 27 24 23 21 19 17 14 12 11 10 10 10 10 10 11 11 12 13
3 14 14 11 15 10 6 9 8 15 37 35 31 27 27 28 30 33 34 34 32 31 30 32 32 33 34 35 35 34 33 30 28 26 26 23 20 18 15 14 13 12 11 11 11 11 12 13 15
6 6 17 28 24 24 20 22 13 24 48 42 37 33 34 33 34 34 33 33 34 36 33 33 34 35 36 37 37 37 36 33 30 30 28 26 24 21 18 16 14 14 13 13 12 13 13 14 14
3 9 16 17 19 17 8 30 4 35 38 34 30 26 26 32 36 37 37 38 38 37 37 36 36 37 38 39 39 40 38 35 33 32 31 29 26 23 20 18 16 15 14 14 14 14 15 15 15
6 8 9 8 10 8 12 12 11 40 30 30 30 31 31 32 30 35 37 40 40 40 39 38 39 39 40 40 41 41 40 38 37 36 34 32 29 26 23 21 20 17 16 16 15 15 15 15 15
4 1 5 2 7 4 10 12 23 28 24 28 29 28 28 32 36 39 39 42 40 41 41 40 40 41 43 43 43 42 42 40 39 38 37 34 31 29 27 24 22 21 19 17 16 16 16 17 16
3 6 8 12 13 6 8 10 14 11 13 23 28 33 38 46 46 45 43 43 43 42 42 41 41 42 44 45 45 43 42 42 41 40 38 36 33 31 29 27 26 24 21 18 17 16 16 17 17
9 5 6 7 7 5 6 15 12 36 15 27 36 44 51 53 56 53 50 47 46 43 42 42 42 43 45 46 46 45 43 43 42 41 40 37 35 33 32 30 28 26 23 20 18 17 17 17 17
4 7 9 8 11 3 13 17 15 26 30 29 34 43 48 53 61 56 52 47 40 42 41 42 46 46 48 48 47 48 48 46 44 43 41 39 37 36 34 32 31 28 25 22 21 18 17 17 17
8 15 18 18 17 6 17 23 15 13 19 37 40 39 44 48 50 51 46 39 37 36 35 37 42 47 48 48 46 49 49 48 45 44 43 41 40 38 36 34 32 30 28 26 22 19 16 15 15
11 10 20 18 6 6 12 21 15 12 16 34 46 41 46 48 51 52 47 40 36 35 34 34 36 42 45 47 48 48 48 46 46 46 44 45 42 40 38 36 34 32 30 28 24 21 17 14 14
19 11 13 10 3 10 3 19 5 11 16 15 28 39 40 44 40 44 45 39 32 27 28 32 35 39 41 46 48 49 48 48 48 45 45 45 43 41 39 37 35 33 32 31 27 23 18 15 13
12 4 6 3 4 5 5 4 2 6 9 13 11 27 29 32 37 38 42 36 25 22 24 28 32 35 38 43 46 46 48 47 42 44 45 45 44 42 41 39 37 36 34 31 28 24 19 16 14
2 3 2 4 2 7 10 8 6 5 7 4 5 21 26 28 37 45 41 38 26 23 24 26 30 31 34 39 43 46 45 44 44 45 46 46 45 44 43 42 40 38 37 34 29 26 22 18 16
3 5 4 3 1 11 7 5 22 10 11 9 11 20 21 30 38 40 38 37 24 28 26 25 26 29 32 36 41 43 42 43 44 44 43 43 45 46 46 44 43 41 39 36 33 30 25 21 18
8 9 6 7 8 17 6 10 16 8 9 9 8 10 21 37 49 38 26 23 23 22 26 24 26 27 29 33 39 41 41 44 46 46 45 42 42 44 44 44 42 42 40 38 35 32 28 25 22
5 6 6 3 0 2 12 17 16 7 5 1 9 16 24 35 43 32 22 18 19 18 20 21 22 23 30 31 36 41 44 46 47 45 45 44 41 41 41 42 42 43 42 41 38 35 32 28 25
6 1 1 1 4 11 8 17 16 12 15 12 9 15 33 37 40 33 23 16 11 9 10 16 21 22 29 32 37 42 45 44 44 46 46 44 43 43 42 41 43 44 44 43 40 37 34 32 29
1 4 5 1 6 15 17 10 26 20 7 9 9 21 31 37 42 38 18 14 12 11 13 14 17 24 28 32 40 44 44 46 47 47 48 46 45 45 44 43 42 44 46 44 43 40 37 34 31
5 8 5 6 9 10 16 16 21 30 18 10 16 30 34 31 28 33 38 33 17 25 30 32 31 33 36 37 41 45 47 49 51 50 49 49 48 47 45 44 43 44 47 46 45 43 41 38 35

GFSSGP_850_spd_015.txt.gz
Wind_Speed
4 3 3 3 3 4 3 4 2 3 2 2 7 4 4 2 4 3 2 6 11 23 24 25 24 22 19 17 16 14 12 12 12 10 11 12 12 11 9 8 8 8 8 5 1 2 3 4 4
3 2 1 2 3 2 4 3 4 4 1 3 6 4 3 6 13 8 7 7 11 17 21 23 24 23 21 18 17 16 14 12 11 13 13 11 11 10 9 9 10 11 10 6 5 4 4 5 5
2 1 0 3 2 3 4 4 3 3 3 3 2 4 4 4 5 5 5 9 12 16 19 21 21 21 22 22 19 17 15 16 14 15 17 16 13 9 7 9 11 12 11 8 8 8 8 8 8
1 1 4 3 4 6 5 2 3 6 2 6 3 6 7 10 5 6 5 10 13 15 19 20 20 20 20 19 20 19 18 17 18 19 14 13 14 12 9 10 12 12 11 10 9 9 9 9 8
3 2 3 2 4 5 5 9 4 2 2 2 4 3 5 11 11 13 7 9 13 14 17 19 21 21 20 20 20 20 21 21 22 15 12 13 13 11 10 10 11 10 10 9 9 8 5 4 4
3 3 3 2 4 5 7 8 3 3 4 3 4 5 7 9 9 9 11 9 12 14 16 18 21 21 21 23 22 21 22 22 22 17 13 13 12 11 10 10 9 9 8 6 4 4 2 2 2
5 4 3 3 4 5 4 2 3 3 3 6 5 2 5 9 6 6 9 12 13 15 16 18 21 23 22 22 23 23 23 23 24 18 16 13 12 11 10 9 8 7 6 5 4 3 2 2 2
4 4 3 4 3 6 3 2 2 4 4 4 5 5 5 9 12 11 11 13 16 18 18 20 21 24 25 24 23 24 22 23 23 21 17 14 13 12 10 9 8 8 7 6 5 4 3 2 2
5 3 2 5 6 5 3 2 2 3 10 9 12 20 23 23 20 17 16 17 19 21 21 22 23 25 26 25 25 25 24 25 22 21 19 16 15 13 12 12 11 9 8 7 5 4 3 3 3
4 3 8 6 6 5 4 6 11 4 11 14 18 24 26 25 25 24 23 22 22 22 23 24 25 26 27 28 28 28 27 27 24 23 21 18 17 15 15 14 12 11 10 8 7 5 4 3 4
6 6 6 7 16 12 7 6 7 4 7 27 22 21 18 22 25 28 26 25 25 23 24 25 27 27 29 30 30 30 30 29 27 26 23 21 21 20 18 17 15 13 12 9 7 5 4 3 4
3 14 11 5 8 5 5 7 5 13 33 34 36 33 33 31 30 27 27 25 24 26 25 27 29 30 31 31 33 33 33 32 31 29 27 26 25 24 22 19 17 16 13 10 8 6 5 4 5
4 5 13 20 17 22 21 26 11 27 43 39 35 32 29 26 24 22 22 23 24 26 28 29 30 31 34 34 35 36 36 35 33 33 31 29 28 27 24 22 21 19 16 13 11 9 7 6 6
2 8 16 14 19 18 9 26 4 25 30 30 29 33 32 28 23 20 22 21 22 22 23 28 31 33 36 36 37 38 38 38 36 36 35 33 31 30 28 26 25 22 19 17 14 11 8 6 6
5 7 9 7 11 8 8 9 11 30 23 29 32 24 25 29 24 25 25 27 28 29 27 27 30 35 38 39 39 40 41 40 40 39 38 37 35 34 32 30 28 25 22 20 17 14 10 8 7
3 1 4 4 6 3 10 12 17 30 19 18 25 40 41 38 39 41 41 41 42 40 37 34 33 35 39 42 43 43 43 43 43 43 42 41 39 37 36 34 31 28 26 24 21 18 14 11 9
2 5 7 9 11 4 7 9 10 17 21 30 38 48 50 48 46 44 42 40 36 34 33 34 35 37 38 42 46 46 47 46 45 45 45 45 42 40 39 37 33 32 30 28 25 21 17 13 11
8 5 5 6 6 7 7 15 15 34 36 38 40 40 47 42 47 39 34 29 27 26 26 27 28 33 37 41 46 50 50 50 50 49 48 47 45 43 42 40 38 36 34 32 29 24 20 16 14
3 5 6 8 8 4 22 19 15 24 27 35 41 38 30 39 33 31 32 23 17 17 20 22 26 28 33 42 47 51 54 53 54 52 50 49 47 46 45 43 42 40 38 34 30 27 24 21 18
7 10 14 8 10 4 12 20 20 21 24 31 37 34 29 32 33 27 21 19 16 17 16 20 22 27 31 37 43 49 52 55 56 54 54 52 50 49 48 47 45 42 40 37 35 32 29 26 21
5 6 10 10 6 6 7 8 4 7 10 25 29 24 25 21 17 25 30 29 24 20 16 19 22 24 29 34 40 45 50 50 54 58 58 56 53 51 50 48 46 44 43 41 38 35 32 29 25
9 10 11 6 4 4 5 9 5 8 10 2 14 16 10 10 21 31 37 37 31 27 23 18 20 24 29 33 39 43 47 49 50 54 55 55 54 53 52 50 49 47 45 43 40 37 34 32 30
10 1 2 2 3 3 3 4 6 3 6 7 4 4 5 8 23 41 41 38 37 30 24 17 20 20 26 32 36 40 43 45 47 47 49 53 54 54 53 52 50 49 47 43 42 40 39 36 33
3 3 5 4 2 5 10 8 1 4 4 1 11 13 10 11 23 39 33 32 35 38 33 23 18 18 18 26 32 36 39 41 44 45 43 45 51 53 53 52 51 49 47 46 44 42 40 38 34
2 4 4 4 1 8 3 3 5 5 5 5 6 18 12 19 32 31 31 30 30 33 36 34 26 20 15 14 23 30 35 38 40 41 40 42 44 49 52 53 53 51 49 47 46 45 43 41 39
7 8 5 6 6 12 2 9 7 8 4 15 11 7 14 35 29 28 28 27 28 30 28 28 28 24 20 19 17 21 27 33 38 40 39 39 40 41 45 49 51 51 50 48 46 45 44 43 41
4 6 5 2 3 2 8 12 14 5 5 10 21 28 26 26 29 30 31 32 31 30 29 28 24 21 19 17 19 21 24 27 30 34 36 37 38 39 39 42 48 49 50 50 48 48 47 45 43
7 3 1 1 3 9 6 5 13 6 9 14 15 20 27 29 30 32 32 31 30 31 30 26 27 25 24 22 20 19 21 24 28 29 30 32 35 38 39 39 42 47 49 50 51 51 50 48 47
1 4 4 3 4 5 7 8 4 8 12 8 6 13 22 25 26 26 26 28 30 29 29 28 27 27 25 25 25 25 22 20 23 26 30 33 34 37 39 39 41 45 49 51 53 54 53 51 50
3 7 8 5 7 5 6 8 14 13 11 12 13 17 20 22 23 23 25 27 28 32 31 31 30 29 29 28 28 27 25 25 24 24 25 29 31 36 40 41 42 45 47 50 54 57 56 55 54

GFSSGP_850_spd_021.txt.gz
Wind_Speed
5 5 6 5 6 3 3 3 4 3 2 4 4 6 10 11 8 4 2 3 6 13 20 19 20 21 20 19 17 15 13 11 10 9 8 8 8 8 8 8 8 7 7 4 3 3 3 3 2
3 3 4 6 5 5 6 4 0 6 6 5 5 6 6 5 4 3 4 5 6 12 20 21 21 20 21 19 17 16 15 13 12 11 11 10 10 10 10 10 10 10 9 5 6 5 5 4 4
1 1 5 3 4 6 5 3 4 5 5 5 5 3 7 4 3 2 6 5 7 11 20 21 23 22 21 20 19 18 17 16 14 13 12 10 10 12 10 10 12 12 9 8 8 8 7 7 7
1 2 4 5 6 6 4 8 9 8 1 1 4 8 3 6 2 6 6 6 9 13 18 21 22 23 22 21 20 19 19 17 15 15 14 14 14 14 11 9 10 11 10 9 9 9 8 8 7
1 3 4 4 7 3 4 6 6 6 3 3 3 4 7 7 6 8 10 8 9 14 18 21 20 23 23 23 22 21 20 19 17 18 17 17 16 14 11 11 10 10 10 10 9 7 7 6 4
4 4 5 6 4 4 3 2 4 4 2 2 4 9 6 6 3 5 7 8 9 14 17 20 21 23 24 23 23 23 22 21 20 20 18 16 16 15 10 11 10 10 9 9 9 6 4 3 3
6 5 8 8 9 6 0 0 4 4 5 7 4 7 7 5 7 6 10 9 10 14 17 20 21 23 24 24 24 24 24 23 24 25 21 18 18 16 12 11 11 11 10 9 8 6 5 4 3
4 4 6 4 6 8 3 2 4 7 12 4 5 5 5 3 12 16 14 12 13 15 18 20 22 24 25 26 26 25 24 25 27 26 22 21 20 16 14 13 13 12 12 10 9 8 6 5 4
2 5 7 8 7 2 4 6 4 7 12 16 12 15 15 21 20 20 18 16 17 18 20 21 23 24 25 26 28 28 27 27 28 27 26 25 21 19 18 16 16 15 13 12 10 9 7 6 6
7 8 9 6 9 9 12 11 13 13 16 22 20 20 15 18 20 20 18 18 20 21 22 23 24 25 25 25 25 30 31 31 31 31 30 28 24 22 20 19 18 17 16 14 13 11 10 9 7
5 9 12 14 15 17 15 16 18 16 17 19 15 16 19 18 19 20 20 20 19 20 22 25 26 27 28 29 30 31 33 35 35 34 33 32 27 26 23 22 22 21 19 18 16 14 13 10 9
10 16 17 20 13 9 15 22 17 19 29 26 26 25 23 21 21 20 21 19 18 19 22 25 27 30 30 31 33 33 32 35 37 36 34 33 32 30 27 26 25 24 22 21 19 17 14 12 10
14 16 19 17 19 18 21 26 21 29 30 30 27 23 21 22 23 19 17 17 19 22 25 27 28 30 32 34 35 34 35 36 35 36 38 35 33 33 30 29 28 26 24 24 21 19 17 15 12
14 14 20 23 21 20 18 26 20 30 21 20 18 21 21 21 22 18 15 18 25 24 24 24 28 28 31 35 36 37 37 38 37 38 38 36 34 35 34 32 31 29 28 26 24 21 20 18 15
11 13 16 23 25 13 8 16 14 21 15 15 21 22 25 25 24 22 25 27 24 26 26 25 24 26 30 32 36 38 39 39 40 40 40 40 37 38 36 35 35 32 30 29 27 25 23 21 18
10 13 13 6 3 1 8 15 18 9 12 21 27 33 31 29 25 23 24 24 22 20 21 25 29 31 33 33 35 38 40 41 40 41 41 42 39 40 39 38 37 35 34 32 30 28 26 23 21
13 14 18 15 13 2 11 13 15 26 28 33 36 31 27 26 21 13 13 14 13 15 15 18 22 26 31 35 36 37 38 41 42 41 41 42 42 41 42 41 39 38 36 35 34 32 29 27 23
17 19 20 15 17 14 17 22 20 28 27 32 33 29 22 16 11 11 13 10 8 8 10 12 15 19 23 26 31 35 35 37 37 38 40 40 41 41 42 42 41 40 38 37 36 34 32 29 26
20 21 23 21 20 22 21 21 20 26 32 30 27 21 12 4 11 14 16 16 11 8 5 6 10 12 17 19 23 27 31 34 34 35 33 36 40 41 42 45 44 43 41 39 38 37 34 31 29
18 21 21 20 17 13 17 21 25 22 22 17 15 13 3 12 13 15 18 21 22 20 16 11 7 5 10 13 16 16 14 19 21 26 31 33 38 41 42 45 46 46 43 41 41 39 38 35 34
18 19 22 22 18 17 13 15 12 10 24 13 8 12 18 15 15 17 19 22 23 24 24 23 19 11 2 6 9 12 16 19 15 19 25 31 35 39 42 44 46 47 46 46 45 44 43 41 39
15 12 7 12 9 10 7 11 11 17 12 9 17 18 16 16 15 16 19 23 24 24 23 25 23 20 16 8 3 6 8 10 9 12 18 24 28 33 38 42 44 49 49 49 48 46 46 44 44
8 2 7 8 11 16 14 9 5 15 8 13 13 13 14 15 15 19 21 22 23 23 23 22 21 21 20 16 10 7 6 8 9 11 17 20 21 22 25 35 40 47 51 51 51 50 49 48 46
6 7 14 13 8 8 6 6 4 4 5 12 11 12 13 13 14 16 15 16 18 20 23 25 25 26 23 18 15 12 9 7 7 11 14 16 18 20 20 24 34 42 49 51 52 51 51 51 49
6 8 7 8 8 13 5 6 9 6 3 5 10 9 11 12 12 13 13 12 14 18 20 24 23 25 25 25 23 18 14 11 10 10 11 13 13 18 18 19 23 30 41 49 50 52 52 52 52
10 9 7 10 14 16 8 12 10 5 14 14 12 12 10 9 9 9 11 12 14 18 24 24 25 23 22 21 22 22 22 19 15 13 13 12 13 15 18 19 20 23 28 39 47 50 52 52 51
5 7 8 6 11 8 14 23 18 12 12 10 11 10 8 7 7 10 14 16 15 17 18 19 21 22 21 21 20 20 21 21 21 19 16 15 14 15 17 18 20 22 23 27 35 45 50 52 51
6 5 7 4 5 15 12 18 13 7 12 10 8 8 7 10 13 13 13 13 14 15 16 19 20 20 19 19 19 20 20 20 20 20 20 20 19 17 16 18 19 21 23 25 28 34 42 48 51
10 10 11 12 11 13 16 13 8 9 8 7 7 7 9 9 9 9 8 10 12 15 18 19 19 21 21 21 19 18 19 20 20 20 20 20 20 20 20 17 17 20 22 25 29 31 33 40 48
14 15 16 12 9 11 13 12 10 8 7 6 4 7 6 5 6 7 7 9 13 16 17 17 19 21 22 22 20 20 20 21 21 22 23 23 24 22 21 21 21 20 20 23 27 32 33 35 41

GFSSGP_850_spd_027.txt.gz
Wind_Speed
5 4 4 4 4 5 4 2 3 6 3 1 2 1 2 3 3 3 1 3 5 6 13 21 21 21 19 17 15 13 12 11 10 9 8 8 7 7 6 4 3 4 2 2 0 1 1 3 4
3 2 3 2 4 3 5 3 5 4 3 2 2 1 1 1 3 3 2 1 6 5 11 19 20 21 20 19 16 14 13 12 11 10 9 9 8 7 6 6 5 3 3 3 2 1 1 1 1
3 2 3 3 3 3 2 2 2 5 5 3 2 2 1 3 2 2 2 2 6 8 10 18 20 20 20 19 18 16 14 12 11 10 10 10 10 9 7 8 8 8 4 5 4 4 3 3 3
1 2 1 4 2 2 3 2 5 3 2 3 1 4 2 3 2 2 3 2 5 7 10 14 20 21 21 20 19 18 16 14 13 12 11 11 11 9 8 8 10 9 7 7 6 5 5 4 4
3 1 3 2 4 1 4 6 4 2 3 3 2 3 7 4 1 2 4 3 4 8 10 13 17 21 21 21 21 20 18 17 16 15 14 13 13 11 10 10 12 10 8 9 8 6 5 5 5
3 1 4 1 5 2 3 7 2 4 3 1 1 1 2 2 3 3 4 6 5 7 10 13 15 18 22 23 22 22 20 19 17 17 17 17 15 14 11 9 11 11 9 10 8 7 6 5 5
2 3 3 3 4 5 2 3 3 3 8 2 1 1 3 4 5 5 6 8 7 8 11 14 16 18 19 23 24 23 22 21 20 18 18 19 17 17 13 9 11 10 10 10 8 7 6 7 7
2 4 2 3 1 3 4 2 1 3 5 3 3 2 2 7 10 11 13 13 11 12 13 14 17 19 20 23 24 25 25 23 22 21 21 20 19 19 16 11 13 12 11 10 8 8 8 8 7
1 4 2 3 5 3 3 4 1 5 9 12 8 15 19 21 18 14 15 14 15 15 17 18 17 19 21 23 25 25 24 24 24 22 24 23 23 21 19 14 15 14 13 11 10 10 10 9 9
3 3 5 2 1 3 7 4 8 7 16 24 24 18 11 18 16 18 19 20 19 18 19 21 20 20 21 23 25 27 26 26 27 27 27 26 25 24 21 18 17 17 16 14 12 11 12 11 10
4 5 3 9 13 10 6 13 9 9 5 18 26 26 24 24 21 20 21 22 24 21 17 18 19 20 22 23 24 27 28 29 29 29 29 28 28 27 25 23 21 20 19 17 16 14 15 13 11
3 11 10 7 17 11 4 9 11 13 26 27 25 25 26 26 20 20 20 19 20 20 20 18 21 21 21 24 26 25 26 27 29 31 29 30 31 30 29 27 24 22 21 19 18 16 18 16 14
4 3 7 13 17 20 18 12 11 26 25 21 20 19 20 14 16 18 18 18 17 19 20 18 19 22 23 23 27 28 27 26 26 29 30 32 33 30 29 26 26 24 23 23 22 21 20 19 17
4 6 12 12 23 23 12 12 2 20 20 17 13 13 13 18 16 15 16 13 16 18 18 19 18 18 22 24 23 28 29 28 27 27 29 29 33 33 33 28 26 26 26 25 24 23 22 22 20
5 5 7 17 11 7 7 3 7 18 16 23 23 25 31 20 12 12 5 10 10 9 13 13 17 15 19 23 22 23 28 30 30 29 27 29 29 32 34 32 30 28 28 27 27 26 26 25 24
4 1 3 5 3 2 2 7 10 15 17 28 33 29 19 4 2 2 2 5 7 7 10 11 12 11 12 20 22 21 23 27 29 29 28 27 27 30 32 32 31 29 30 30 29 28 28 27 27
2 3 5 7 4 3 3 6 12 18 22 30 29 20 6 5 6 9 8 7 9 12 11 9 10 13 12 13 17 20 20 22 25 25 25 25 26 29 31 31 30 30 31 32 31 30 29 30 29
5 4 4 5 4 2 4 9 9 20 27 27 21 9 11 14 17 14 12 10 7 4 5 7 7 8 11 10 13 16 19 19 20 23 23 24 26 28 30 29 28 30 31 33 34 32 32 31 29
3 3 4 5 9 4 9 6 10 21 28 20 7 20 19 19 15 16 17 17 17 15 11 5 5 6 8 10 11 13 15 16 17 18 19 23 24 25 26 28 27 29 31 33 34 34 34 33 32
4 4 6 5 5 2 7 9 13 17 4 4 23 22 18 17 18 20 20 21 24 23 22 17 10 4 2 4 4 4 7 13 14 15 18 18 19 23 24 25 27 28 29 31 33 35 36 35 35
3 4 5 8 3 4 4 6 8 3 21 23 22 21 19 20 21 21 22 23 23 24 24 21 18 13 9 4 2 6 8 6 7 9 13 13 16 19 21 22 24 27 29 31 32 33 36 37 39
5 3 4 3 2 3 3 5 4 2 7 9 15 20 20 20 20 20 21 23 25 25 23 22 19 17 14 11 7 5 3 2 4 5 8 13 16 18 17 19 21 24 27 30 31 32 34 37 41
7 2 2 3 4 2 5 0 7 9 5 4 12 20 20 18 19 20 21 21 21 21 23 22 21 20 20 17 13 9 5 2 4 7 9 11 12 13 17 20 19 22 26 28 29 31 34 36 39
3 2 4 2 3 1 5 5 5 4 8 6 13 20 19 16 16 17 17 16 17 17 17 17 18 18 17 16 16 15 12 8 5 5 8 9 9 8 8 10 13 19 23 25 28 29 31 34 38
4 4 3 4 1 5 2 2 7 5 5 14 16 21 17 14 14 14 14 15 15 15 16 15 14 14 14 13 12 12 12 12 11 11 10 9 10 11 11 13 12 11 12 20 26 29 31 33 35
5 5 4 5 3 4 7 5 4 9 25 28 27 20 14 11 11 12 12 13 14 14 14 13 13 12 12 13 14 13 12 13 14 13 14 13 13 13 13 16 18 16 15 15 18 24 30 32 34
4 4 3 2 1 3 4 5 8 9 12 18 20 18 14 10 6 7 9 10 10 10 9 10 9 10 11 11 12 13 13 13 15 15 15 17 17 15 14 13 14 14 14 16 18 21 24 28 32
2 1 2 2 1 4 5 4 4 5 10 8 9 13 11 7 3 2 5 8 8 7 6 7 8 10 11 10 10 11 14 14 15 15 16 17 19 20 20 18 16 17 16 15 17 20 22 25 28
1 1 2 2 4 4 2 5 4 6 11 10 13 14 12 8 6 5 4 3 2 2 6 8 8 10 12 14 15 14 14 15 16 17 17 16 18 22 25 25 24 23 22 19 18 19 21 24 26
6 6 5 3 5 3 3 11 3 8 15 17 17 15 11 10 8 7 7 4 2 1 3 6 11 14 15 17 18 19 19 19 19 21 22 22 22 21 24 26 26 26 27 26 24 24 23 24 25

GFSSGP_850_spd_030.txt.gz
Wind_Speed
4 4 5 1 4 5 2 2 1 1 2 1 1 1 1 1 2 3 1 2 2 8 15 21 21 20 18 15 13 13 12 11 9 9 8 8 8 7 7 6 5 4 4 2 1 1 2 3 3
3 2 2 3 5 4 4 4 1 2 2 2 1 1 1 1 1 1 1 3 1 5 12 21 22 20 19 17 15 14 12 11 10 10 10 10 9 8 8 6 5 3 5 4 3 3 2 2 2
1 2 2 4 4 4 3 3 2 1 2 1 2 1 1 1 1 0 1 2 3 5 8 17 22 22 21 19 17 15 14 12 12 11 11 11 9 8 7 7 7 7 5 5 5 4 4 4 4
1 2 4 4 1 2 6 5 3 3 1 2 1 1 0 2 1 1 2 3 3 6 8 14 20 22 22 21 19 17 15 14 13 12 11 11 11 9 9 8 9 10 7 7 7 6 5 6 6
4 3 4 3 3 3 1 4 3 2 1 1 0 1 4 4 3 2 2 4 3 5 8 12 17 21 21 21 20 19 17 16 14 13 12 12 11 10 9 9 11 11 8 8 8 7 6 6 7
2 2 4 0 4 3 3 0 3 3 3 1 2 3 4 3 4 3 2 5 5 5 7 11 14 19 21 21 21 20 19 18 16 15 13 15 14 12 11 11 11 11 10 9 8 7 7 7 6
4 4 3 3 3 2 3 1 3 2 2 1 0 2 5 4 4 5 6 8 8 7 9 11 14 16 19 22 22 22 21 20 19 18 16 17 17 15 13 12 10 10 10 10 8 7 7 6 7
2 4 1 2 3 3 6 5 3 5 2 2 2 2 4 10 12 11 9 9 9 10 11 12 14 17 19 21 23 24 24 23 22 20 19 20 19 18 15 14 11 11 11 11 9 8 8 8 7
1 4 1 2 2 3 8 6 5 7 4 7 6 9 14 8 11 12 13 15 15 13 13 15 16 17 19 21 23 24 25 25 24 23 21 22 22 22 18 15 14 12 12 11 10 9 9 10 10
3 3 6 3 2 2 5 2 10 4 11 22 22 15 17 17 16 16 17 19 20 19 15 15 16 18 19 21 23 25 26 25 24 23 23 24 24 24 20 18 17 15 14 13 12 11 12 12 11
3 4 3 3 3 4 5 9 5 4 5 21 24 25 17 16 20 21 19 19 18 17 17 15 14 15 17 20 22 25 28 27 26 25 24 25 26 25 24 23 21 19 17 16 15 14 14 14 13
1 9 10 6 7 7 4 6 8 9 18 19 18 18 15 14 16 13 14 15 18 18 17 17 16 14 15 17 19 22 26 29 29 28 27 28 28 28 27 27 25 22 20 18 18 16 17 16 16
4 4 7 12 17 14 15 15 9 22 19 14 12 11 11 11 13 11 11 14 13 17 19 17 21 18 16 17 18 19 24 26 26 27 29 30 29 30 28 28 27 25 23 21 20 19 20 19 19
1 5 11 13 22 16 10 7 2 11 10 12 9 15 14 13 11 10 14 19 14 13 18 19 17 17 16 18 18 19 19 22 23 23 23 28 28 30 30 29 29 22 22 22 22 22 21 21 22
3 5 8 13 6 5 1 2 6 11 14 18 14 14 13 9 8 7 6 6 8 10 11 14 19 18 16 17 18 19 18 18 21 22 21 23 26 26 30 31 34 26 23 23 24 25 25 25 25
2 2 3 4 2 1 4 8 9 12 17 22 14 9 0 1 4 5 5 5 7 8 10 12 13 16 15 12 16 18 18 18 19 21 22 22 23 26 28 30 33 30 26 26 26 27 28 27 27
3 3 4 8 4 2 2 6 11 22 21 19 8 6 7 9 9 8 6 6 7 9 9 10 11 12 13 11 13 17 18 17 18 19 19 21 22 23 25 26 27 28 27 27 27 27 28 28 28
5 4 5 6 3 2 6 9 10 23 22 3 4 13 14 14 15 13 11 9 7 5 2 0 1 4 8 9 11 12 13 14 14 15 16 18 20 21 23 24 25 27 27 27 28 28 28 29 28
3 4 5 4 7 2 8 5 13 20 19 4 17 17 17 19 17 17 18 18 17 15 11 8 2 3 4 5 7 8 8 9 10 11 13 15 16 18 20 21 23 24 29 27 27 29 30 31 29
4 5 6 6 5 1 7 9 12 8 6 12 19 17 17 18 18 19 20 21 23 23 22 18 16 11 7 3 2 1 4 7 9 9 10 12 14 13 15 17 20 22 26 27 28 28 30 31 31
5 5 5 7 5 3 4 6 7 6 16 20 17 18 17 18 19 20 21 24 25 27 27 25 22 19 17 12 5 1 3 3 5 8 6 9 11 11 11 13 16 19 23 25 27 28 29 31 32
5 6 6 4 3 3 3 5 6 3 6 11 15 17 17 18 19 20 22 24 26 26 24 24 24 24 22 19 15 12 8 6 4 5 5 10 14 14 16 14 15 17 21 23 24 25 28 31 33
7 4 3 1 2 1 3 0 6 6 4 5 11 16 16 16 18 19 20 21 21 20 21 21 20 20 21 21 20 18 15 12 9 6 6 8 10 12 14 15 19 21 20 22 24 25 26 29 33
4 4 5 4 3 2 6 6 5 4 5 7 12 16 16 15 15 17 17 18 19 19 19 20 19 19 18 17 17 17 16 16 14 13 13 12 11 9 10 10 12 14 17 21 24 23 25 28 31
5 5 2 3 2 5 5 3 6 7 2 15 17 18 15 13 13 14 16 17 16 16 17 18 17 16 16 16 14 14 13 13 14 16 16 16 16 16 15 14 13 14 15 16 19 22 25 25 29
5 7 5 6 3 4 5 5 3 4 13 23 21 19 15 12 10 11 10 11 10 10 10 10 8 7 7 8 10 10 9 11 12 12 13 14 15 17 17 17 17 15 15 16 18 20 23 24 28
4 4 2 5 2 3 4 1 3 3 5 13 17 15 14 12 8 4 4 6 6 6 6 6 7 8 8 9 11 11 11 12 15 16 17 16 15 16 16 17 17 18 18 17 17 18 20 23 26
4 5 3 2 2 5 5 5 5 8 9 7 10 14 13 12 8 4 4 5 6 6 5 3 3 4 6 8 8 9 11 13 15 17 18 19 19 19 22 23 23 23 22 20 21 21 20 21 21
2 2 2 3 5 5 2 6 3 9 12 13 17 20 19 16 11 9 8 6 7 5 1 2 2 4 5 6 7 9 11 13 15 17 19 20 21 23 23 26 27 27 28 27 27 25 25 27 26
3 6 6 4 5 3 3 11 2 8 17 19 19 18 19 16 13 13 12 9 7 6 4 2 2 4 7 9 11 13 14 16 18 19 21 23 25 26 28 29 30 31 32 33 33 33 32 31 32

GFSSGP_850_spd_033.txt.gz
Wind_Speed
5 5 5 1 4 5 2 1 2 1 2 1 1 2 2 2 3 3 2 1 1 8 15 19 19 19 18 16 15 14 12 9 7 7 6 7 6 6 6 4 4 5 4 2 2 1 2 2 1
4 3 2 1 5 4 4 3 2 1 2 2 1 2 2 2 1 2 1 1 1 5 12 18 20 19 18 15 14 13 12 10 8 7 7 7 7 7 6 5 4 4 4 4 2 1 1 2 3
3 3 2 4 4 3 4 3 3 2 1 2 1 1 0 2 2 2 3 2 1 4 8 16 19 19 18 16 15 14 12 11 10 9 9 9 9 8 7 6 6 6 5 5 5 4 3 3 3
2 1 5 5 2 3 3 3 3 1 1 2 3 2 2 2 2 1 4 4 2 3 5 12 18 19 19 18 17 16 14 13 11 10 10 10 8 8 7 7 8 9 8 7 6 6 5 6 6
2 2 4 4 3 4 2 2 4 2 1 2 3 3 5 4 2 0 2 5 4 2 5 8 15 19 20 20 19 18 16 15 13 12 10 11 11 9 8 8 9 11 9 7 7 7 6 7 7
2 3 4 1 2 4 3 1 1 3 2 1 1 4 4 3 1 2 4 4 5 3 5 8 12 18 20 21 21 20 19 17 15 13 13 12 11 11 10 10 10 12 10 8 8 7 7 7 8
5 4 3 2 3 3 3 5 2 3 1 1 1 2 5 7 7 6 6 6 7 5 6 8 11 15 19 21 21 21 20 19 17 15 15 14 15 14 12 11 11 12 11 9 8 8 8 7 7
3 5 2 2 2 1 6 6 3 3 1 0 1 2 3 12 10 8 9 7 7 9 8 9 11 14 17 20 21 21 21 20 19 18 17 17 17 16 15 13 11 12 10 10 9 9 8 8 7
2 4 1 3 2 2 6 6 1 6 4 4 6 5 11 11 10 11 11 12 12 13 12 11 11 14 16 18 20 21 22 22 22 21 20 19 20 19 17 15 14 13 11 11 10 10 10 10 9
4 4 7 4 2 2 6 4 9 4 12 5 9 12 11 11 10 11 14 17 18 18 16 14 14 14 16 17 19 20 22 22 22 22 22 21 22 21 19 17 16 15 13 12 12 12 11 12 11
3 4 5 4 6 3 4 6 2 4 3 15 16 20 14 9 9 11 12 12 13 14 15 17 17 16 16 17 18 20 24 23 24 23 22 21 22 23 21 20 19 18 16 15 15 14 12 14 13
0 5 5 2 4 3 3 5 7 9 16 17 17 12 10 8 8 7 8 10 10 10 12 15 16 17 17 17 17 17 20 23 24 25 23 23 22 25 25 23 21 20 19 17 16 16 15 16 16
3 4 6 10 13 13 10 11 7 21 15 11 5 8 9 10 8 8 8 7 7 10 13 16 16 16 16 16 16 16 17 20 23 26 25 25 25 25 26 26 24 22 22 20 19 17 17 18 18
2 5 11 12 19 12 5 4 2 4 3 6 7 9 11 10 9 7 8 11 10 8 10 14 18 18 17 16 14 15 16 15 16 19 21 23 27 27 27 26 26 25 23 18 18 19 19 20 21
2 5 8 10 7 5 5 0 7 6 9 9 7 8 7 9 9 8 8 10 12 13 12 10 12 16 17 17 16 16 15 15 14 13 13 15 17 22 21 23 26 26 26 23 20 20 22 23 24
3 3 4 4 2 1 4 7 6 8 10 6 3 2 3 5 8 9 8 7 8 9 12 13 9 9 13 12 13 14 15 14 12 12 14 14 16 18 21 23 24 23 27 28 25 23 23 24 25
5 3 4 8 3 2 3 5 9 16 18 4 7 5 6 6 7 8 9 9 9 8 8 10 8 4 5 6 6 7 9 10 10 11 12 13 15 17 19 20 21 21 23 25 25 25 24 26 26
6 4 5 5 0 3 3 8 13 23 6 7 11 11 11 12 15 14 12 11 11 9 8 8 8 6 3 4 4 5 7 7 7 8 11 12 12 14 15 17 19 20 21 23 23 24 24 26 26
2 4 4 3 5 1 6 5 12 14 11 16 15 14 15 17 17 18 18 19 18 17 16 15 9 10 6 4 2 2 2 3 3 6 9 10 12 13 11 11 12 14 17 18 19 20 22 23 26
2 2 5 6 4 3 6 10 3 10 7 12 16 15 16 17 17 20 21 23 24 26 26 25 24 20 17 12 10 8 5 2 1 3 6 8 9 11 12 11 11 11 11 13 16 19 21 21 22
4 5 5 8 3 1 3 6 2 6 15 16 15 15 15 16 18 20 22 24 25 27 28 28 28 27 25 20 14 9 5 4 1 2 2 5 8 10 11 12 15 15 14 17 19 18 17 19 21
4 8 7 3 3 4 1 5 6 5 5 7 13 14 15 16 18 19 20 22 24 26 25 26 26 26 27 24 23 22 20 18 15 12 10 10 10 11 12 13 14 15 18 21 22 21 20 20 21
7 4 4 2 2 3 4 1 6 6 3 5 9 13 15 16 17 18 19 21 22 22 23 23 23 23 24 23 24 23 21 19 16 14 12 12 12 11 11 11 11 12 16 17 19 22 24 24 24
5 4 6 4 3 1 7 7 4 5 3 6 12 15 15 15 15 16 18 18 17 17 16 16 15 17 16 14 14 14 13 12 10 11 11 11 11 11 11 12 12 11 11 13 14 14 16 22 25
4 5 2 4 2 5 3 1 7 4 5 11 16 20 18 16 15 15 14 12 11 10 12 12 10 10 10 10 11 12 11 10 11 12 12 11 13 15 15 15 15 16 16 14 13 14 15 16 18
6 7 5 7 3 4 2 6 5 1 2 19 27 24 20 17 16 13 9 7 6 6 7 7 7 8 8 8 9 9 9 11 12 13 15 15 15 17 19 18 18 19 20 19 18 17 17 17 18
5 5 3 5 2 3 4 4 2 3 4 11 19 20 22 20 17 13 8 4 1 3 3 3 4 5 5 6 7 7 8 9 10 12 13 14 16 17 18 20 20 20 21 23 23 22 22 21 21
4 6 4 2 2 5 4 5 5 7 10 7 10 21 20 19 18 15 10 5 2 2 1 0 1 2 3 4 5 7 8 9 11 12 14 16 18 19 21 23 24 24 24 25 27 26 26 27 26
2 2 3 3 5 6 2 6 5 11 13 14 19 22 20 21 20 15 11 7 6 5 4 4 4 2 1 2 4 6 8 10 12 14 16 18 20 22 24 26 27 28 29 30 32 31 31 31 31
3 7 7 5 6 3 1 12 5 6 15 22 23 19 19 19 19 17 15 12 11 9 8 8 6 3 1 4 6 8 10 12 14 15 17 19 21 22 25 27 29 31 33 35 37 39 38 38 40

GFSSGP_850_spd_036.txt.gz
Wind_Speed
3 3 3 1 4 5 1 1 1 2 1 1 2 2 2 2 3 2 6 1 3 6 13 16 16 15 14 14 12 10 9 7 5 3 2 3 3 3 1 2 4 6 6 5 5 4 3 2 1
3 2 1 2 5 4 4 3 1 1 1 1 2 3 2 1 2 3 4 3 3 4 11 14 15 15 14 13 11 11 9 7 5 4 4 5 5 5 4 5 5 6 5 4 3 2 2 1 1
3 3 0 4 4 4 3 3 2 2 2 3 2 2 2 1 2 2 4 3 3 1 7 13 14 15 14 12 11 11 10 8 7 6 6 6 6 6 5 7 7 7 7 7 5 3 3 2 3
3 2 5 5 2 1 2 1 2 1 2 3 3 2 1 1 1 2 5 6 4 0 3 11 15 15 14 14 13 13 12 10 9 8 8 8 8 6 5 7 8 7 8 9 6 5 5 5 5
4 3 4 4 3 3 3 2 1 1 1 2 3 2 4 3 0 1 3 6 6 2 3 5 13 16 15 15 15 14 13 12 11 10 9 8 7 9 7 8 9 9 11 8 7 6 6 6 6
3 3 5 2 2 3 3 3 1 2 3 2 2 5 3 7 4 4 2 3 6 3 1 4 8 14 17 17 17 16 16 14 13 11 10 10 9 8 8 8 9 10 11 8 6 6 6 7 6
5 4 4 4 1 3 2 5 3 0 3 2 4 3 2 6 9 6 5 4 4 4 3 4 7 11 16 18 18 19 18 17 15 13 12 12 11 11 10 10 10 10 10 9 7 7 7 7 6
3 5 3 2 1 1 3 2 3 2 1 2 3 2 4 12 9 5 5 5 6 6 5 5 7 10 14 17 20 19 19 18 17 15 15 15 14 14 12 12 11 11 11 11 8 8 7 6 6
2 4 1 3 5 2 2 4 2 5 3 4 3 5 11 10 9 6 4 5 8 8 9 10 9 10 12 15 18 18 19 18 17 17 17 17 17 16 16 13 12 12 12 11 10 9 9 8 7
4 4 6 3 2 1 3 1 6 3 9 0 6 9 9 7 6 5 8 9 11 11 11 12 12 12 12 14 16 17 17 17 18 17 17 18 19 18 17 15 14 14 13 12 11 10 10 11 10
3 4 3 2 6 2 3 5 1 1 4 3 8 11 7 5 2 3 4 7 9 9 9 11 12 13 14 14 15 16 15 18 19 18 18 18 18 18 17 17 17 16 14 14 13 12 10 12 12
1 3 4 2 3 2 3 5 5 5 1 7 5 4 6 6 7 6 6 6 6 6 7 10 13 14 15 14 14 13 14 16 18 16 20 20 19 19 19 19 19 19 18 17 17 14 13 13 13
2 2 3 6 9 10 9 7 6 17 9 6 4 2 6 8 7 7 8 7 8 9 10 10 12 14 16 17 15 14 13 11 13 19 18 20 19 19 20 19 20 20 20 19 18 17 15 15 15
1 4 10 10 11 8 5 3 2 7 6 4 3 8 9 9 9 7 7 8 8 7 8 9 10 12 14 17 15 14 12 11 9 8 11 17 19 22 22 20 20 19 21 20 20 19 16 15 17
1 4 7 5 4 4 5 1 6 3 3 6 5 5 6 10 10 9 9 10 10 10 11 9 8 9 8 12 14 12 10 9 7 6 6 7 10 10 14 18 19 16 19 20 22 21 20 20 19
3 4 3 2 2 0 4 7 2 3 6 4 2 3 5 7 9 9 8 7 8 9 10 12 9 5 3 6 10 10 9 7 6 6 8 9 9 10 13 15 16 17 19 19 18 23 24 21 22
5 3 4 8 2 2 2 6 7 7 10 6 5 5 5 6 7 9 10 9 9 9 10 10 10 7 6 6 7 7 6 4 6 7 8 8 8 8 8 10 11 14 15 18 19 21 22 20 22
6 4 4 5 1 3 1 8 10 10 3 8 8 8 8 9 12 13 13 14 14 13 12 13 14 14 13 12 9 7 6 2 3 5 7 10 11 11 12 12 12 13 14 13 16 14 20 17 17
5 4 5 3 3 2 6 7 7 6 11 11 11 11 12 14 15 16 18 19 20 20 20 18 14 14 11 9 8 7 5 6 4 2 4 7 7 9 10 11 12 11 8 9 10 12 12 14 16
3 3 5 5 3 5 4 9 3 5 3 9 14 13 13 15 16 19 22 24 25 26 27 26 26 23 20 17 16 14 12 9 8 6 5 6 8 10 11 13 14 13 12 11 12 13 15 17 17
5 6 4 7 2 1 2 7 3 4 9 9 10 13 14 15 17 19 20 23 24 25 26 27 29 29 29 29 26 22 18 13 9 9 7 8 9 8 9 9 11 14 16 18 19 18 18 17 17
5 8 6 4 3 4 1 4 4 4 5 6 11 13 15 15 16 18 19 21 23 26 25 24 24 23 23 21 19 17 18 17 16 14 13 11 9 9 9 8 7 8 11 14 16 18 19 21 20
6 5 6 4 4 1 3 1 6 4 5 6 11 13 14 15 15 17 18 19 20 20 18 18 18 18 17 17 17 16 16 15 13 12 10 11 11 11 11 11 11 10 9 9 10 10 11 14 16
9 6 7 5 3 1 8 7 3 5 4 5 14 17 19 19 18 18 18 17 16 15 13 13 13 15 13 13 13 13 13 12 9 10 10 11 12 12 13 13 14 14 14 14 15 15 13 12 12
5 6 1 3 1 5 1 2 8 7 5 7 19 25 21 18 18 18 16 14 12 10 9 9 9 10 9 8 9 10 9 9 10 11 11 11 12 14 15 16 16 16 17 16 16 16 16 16 16
6 6 5 7 4 4 1 6 6 2 5 8 22 26 22 20 18 16 12 10 7 6 5 5 5 6 6 6 7 8 9 9 10 10 11 12 14 15 15 15 16 17 18 18 19 20 19 18 18
5 4 4 6 2 2 5 4 3 1 3 7 19 25 25 23 21 16 12 9 6 3 1 1 2 3 3 3 5 6 6 6 7 8 10 12 14 15 17 18 19 19 20 22 23 23 24 24 24
3 6 4 3 1 5 4 4 5 6 8 6 11 26 27 24 22 19 14 10 7 4 3 3 2 2 1 1 2 4 5 6 8 9 11 13 15 16 17 19 20 21 23 25 26 28 30 31 31
3 3 3 4 4 5 2 5 5 7 8 14 18 28 26 25 24 21 16 12 9 8 6 7 5 4 3 2 3 5 7 9 10 12 14 16 17 18 19 20 22 24 28 31 34 36 37 38 39
1 6 6 5 5 2 2 8 3 3 14 24 26 28 24 22 21 20 19 17 14 11 11 10 10 8 6 4 4 6 8 10 12 14 15 18 19 20 21 23 26 29 32 35 38 41 43 45 45

GFSSGP_850_spd_042.txt.gz
Wind_Speed
2 0 1 1 2 2 4 4 2 2 1 3 2 4 8 7 6 4 3 3 2 10 16 15 16 13 12 10 9 7 4 3 3 4 4 4 4 2 3 5 8 9 9 8 7 7 7 6 6
1 2 2 0 2 6 6 2 4 4 3 1 1 1 4 8 5 4 4 4 5 11 15 15 15 14 12 11 10 7 5 3 1 1 1 1 1 4 5 6 7 9 9 9 7 6 6 5 5
3 3 1 1 1 5 5 3 3 3 2 0 2 3 3 4 6 4 5 5 6 10 15 14 14 14 12 12 11 8 7 4 2 1 1 1 2 4 6 7 8 8 8 9 5 5 5 5 5
2 1 3 0 8 3 3 3 1 3 2 2 1 5 5 6 3 4 6 6 6 6 13 15 15 13 12 12 11 9 8 6 4 2 2 2 2 3 6 8 8 8 9 9 5 5 4 4 4
1 0 2 5 4 3 1 0 2 2 2 3 1 4 5 5 5 4 5 5 5 7 9 12 14 13 13 12 11 10 9 8 5 4 3 3 2 2 5 7 8 8 9 10 7 6 5 5 4
1 0 3 6 5 3 2 1 2 2 2 2 3 5 4 4 3 3 3 4 4 7 9 9 12 14 13 13 12 11 10 9 8 6 6 5 4 3 4 6 7 7 8 9 7 5 5 5 4
1 1 3 6 8 5 3 1 3 3 4 4 2 4 7 4 3 2 3 3 4 6 8 9 10 14 15 14 13 12 12 11 9 8 7 6 6 5 5 7 8 9 9 9 9 7 6 5 3
3 1 5 4 8 5 3 2 2 1 3 1 2 3 4 4 1 2 3 5 6 5 7 9 11 12 14 16 17 15 14 14 12 10 9 8 8 8 7 7 8 9 10 10 9 9 8 6 4
2 3 5 7 7 6 4 5 2 1 1 2 1 1 5 7 5 7 7 7 8 8 8 9 10 11 13 15 16 17 18 15 12 10 10 9 9 9 8 9 10 11 11 11 8 8 9 8 6
1 2 4 4 4 6 5 2 2 3 2 4 3 3 3 3 4 7 10 10 10 12 13 13 12 13 12 12 14 14 15 12 10 9 10 9 10 10 8 11 11 10 10 14 14 11 9 9 9
0 1 4 3 4 3 3 1 3 3 3 1 2 3 4 4 3 3 4 4 5 6 8 11 14 15 14 13 12 11 10 8 11 11 11 13 13 14 14 13 11 10 11 12 13 15 13 13 11
2 2 3 4 5 4 3 2 3 4 2 6 3 6 3 1 1 2 4 5 6 6 6 7 9 13 15 15 14 12 11 12 11 13 10 11 12 11 12 12 11 10 11 11 13 13 13 14 12
3 3 3 4 6 6 5 6 2 5 8 7 7 6 2 3 4 5 5 6 7 8 8 8 8 10 13 15 15 12 10 10 12 14 16 15 11 10 11 11 10 13 10 10 11 11 13 14 15
2 2 4 5 4 6 6 3 5 5 10 9 6 3 2 4 4 5 7 6 5 6 6 7 7 7 8 12 14 14 14 12 11 9 8 9 9 11 12 12 12 13 11 11 10 12 12 13 14
0 4 6 6 3 6 8 4 6 13 11 8 5 3 2 1 1 2 2 1 1 1 2 4 5 5 8 15 18 17 13 10 8 6 4 3 6 8 10 11 14 13 13 14 12 12 12 15 16
2 2 4 3 4 3 7 4 8 13 11 5 3 2 1 3 3 1 1 2 3 3 2 2 3 6 8 16 18 17 14 10 7 4 3 4 6 8 9 10 12 15 16 16 12 14 15 17 19
2 6 6 3 4 3 8 3 10 8 9 6 5 3 2 1 1 1 3 5 7 8 9 10 10 11 13 17 17 15 13 11 8 5 4 4 4 4 4 4 6 5 8 10 11 12 13 15 16
6 6 5 6 2 5 6 8 11 4 7 7 6 5 4 4 5 6 7 9 11 13 15 18 18 18 18 17 18 17 14 13 10 6 2 1 4 5 7 7 7 7 8 9 9 9 13 14 15
1 4 8 3 1 3 11 13 12 8 6 8 7 7 6 6 8 10 11 13 15 17 18 20 20 20 20 18 16 15 12 11 7 5 5 3 2 1 2 4 5 7 8 8 8 11 11 14 16
6 9 13 5 3 5 9 14 15 12 9 10 11 11 11 11 12 14 15 17 18 19 19 20 19 19 17 16 15 15 14 13 12 10 8 6 4 3 2 3 4 5 5 7 8 9 10 13 14
11 13 12 9 2 4 6 15 19 6 7 9 11 13 14 16 18 20 21 22 23 24 26 27 27 25 24 22 19 18 15 13 11 10 9 9 7 7 6 5 6 6 6 7 9 10 11 13 14
15 13 10 7 4 10 3 8 4 8 10 13 16 17 18 19 21 24 26 27 28 27 26 25 24 22 22 19 16 12 11 11 11 10 9 8 7 6 7 8 8 9 10 10 12 13 14 14 15
6 5 10 8 10 6 8 7 4 3 11 15 18 19 19 17 20 24 26 27 27 25 23 22 21 19 18 15 12 10 10 12 11 9 7 7 7 8 9 9 9 10 11 11 11 12 13 15 15
13 7 5 2 3 9 16 13 6 7 8 12 20 22 22 21 23 24 25 26 25 24 22 20 18 17 16 14 12 9 10 11 10 8 6 6 6 7 7 8 9 9 10 11 13 14 14 15 15
6 10 4 5 6 8 2 11 12 8 8 10 26 30 27 25 27 29 29 26 24 22 20 18 15 13 13 11 10 9 8 7 5 3 2 1 0 1 3 5 6 7 9 11 12 13 14 15 16
15 18 6 7 6 3 2 8 5 1 5 6 21 28 28 27 29 30 29 26 24 21 19 16 12 9 10 9 9 9 8 7 6 5 4 2 1 3 5 7 8 10 11 12 14 15 16 17 18
8 11 3 4 1 3 6 4 6 4 5 6 16 24 28 31 33 34 33 29 26 23 19 15 12 12 11 12 12 11 11 9 7 4 2 1 3 4 6 7 8 10 12 14 15 16 17 19 21
6 11 5 5 5 6 4 5 8 9 13 11 16 26 29 29 33 34 34 30 26 22 19 17 15 14 13 13 13 12 10 7 5 4 2 1 3 5 7 9 11 12 14 15 17 19 21 22 24
7 7 6 3 4 4 3 5 5 11 15 17 22 27 32 33 36 38 36 32 28 25 23 20 18 16 15 15 13 12 9 8 6 4 2 3 6 8 10 12 13 15 16 18 20 21 23 25 27
12 11 15 7 6 4 2 6 5 4 8 16 20 24 28 32 35 37 37 35 31 28 26 23 20 18 17 16 15 14 12 9 7 5 4 6 8 11 13 14 16 17 19 20 22 24 26 28 30

GFSSGP_850_spd_045.txt.gz
Wind_Speed
2 1 1 3 5 1 5 5 1 4 4 7 6 9 13 14 10 5 1 3 2 12 12 13 12 10 9 9 8 6 4 5 4 6 6 5 4 5 6 8 9 10 10 9 8 8 8 8 7
2 2 1 4 4 6 6 5 6 6 6 3 3 2 7 13 12 9 3 2 2 11 12 13 13 11 9 9 9 6 3 3 3 4 4 3 4 6 7 8 9 10 10 9 6 6 6 6 6
3 1 4 3 3 5 6 4 7 6 5 2 3 5 4 7 10 5 3 4 5 9 11 12 13 12 9 8 8 6 4 3 2 2 3 3 4 5 7 9 9 10 11 9 6 6 6 6 5
1 2 4 6 4 4 6 6 6 7 5 2 2 8 8 8 3 5 7 6 7 8 11 12 13 12 9 9 8 6 5 4 2 1 1 2 3 3 7 8 8 9 10 10 7 6 6 5 5
2 4 3 2 4 5 4 5 4 3 4 5 2 6 7 7 7 7 5 6 5 7 10 11 12 11 10 10 9 7 6 5 3 1 1 1 1 2 6 8 9 9 10 11 9 8 7 6 5
5 4 4 6 5 5 5 5 4 3 4 5 3 7 7 5 4 4 5 4 5 6 10 11 14 14 12 12 10 9 7 7 5 3 2 2 2 1 4 6 9 10 10 10 11 9 8 7 6
5 5 4 2 7 7 5 5 6 4 6 5 2 3 10 5 3 2 3 4 5 7 8 8 9 15 15 14 12 11 10 8 7 5 4 4 4 4 5 6 7 8 9 9 9 9 9 8 6
3 4 4 6 8 7 7 7 3 4 5 3 1 3 8 3 0 2 2 3 4 5 7 9 12 14 16 13 13 12 11 10 9 8 7 6 6 7 7 7 6 10 9 9 9 9 9 8 6
1 4 6 5 8 5 7 8 4 1 3 2 2 1 2 4 3 2 2 2 5 7 8 9 10 11 14 17 13 15 14 12 12 10 8 7 7 5 4 4 10 11 10 12 14 11 9 9 8
3 4 2 3 2 4 8 7 6 5 6 5 3 1 3 2 2 3 5 5 7 9 11 12 13 13 13 14 18 14 15 15 10 9 9 8 6 7 7 6 8 10 9 10 12 14 10 12 10
1 4 2 3 3 3 6 5 4 5 6 2 3 4 1 3 2 3 4 7 9 10 11 12 15 15 15 14 14 13 13 10 9 10 9 7 7 11 10 12 11 9 10 9 11 12 14 12 12
5 2 3 2 4 3 5 2 5 6 2 5 6 6 4 2 1 2 4 6 7 8 9 9 10 12 15 14 12 10 10 12 8 11 9 8 8 11 12 12 11 8 8 9 10 11 9 11 12
6 3 4 4 4 5 2 8 8 8 5 6 4 6 3 2 2 4 5 7 8 9 9 10 10 8 10 12 12 11 14 15 16 12 10 9 7 7 6 7 10 8 8 12 11 11 12 12 13
1 4 5 6 8 8 7 11 4 10 9 7 6 5 3 3 4 5 7 8 9 9 10 9 8 7 6 12 15 17 15 13 11 10 9 11 11 12 14 13 12 10 12 13 10 12 12 11 13
2 6 9 12 11 5 8 11 12 10 12 10 7 4 3 5 6 8 8 7 5 6 6 6 6 7 10 15 16 16 14 12 8 5 2 1 3 5 6 8 8 11 13 15 14 14 12 14 13
4 4 8 8 9 5 10 12 10 12 14 11 7 5 5 7 6 6 5 4 3 3 3 4 5 7 11 16 17 17 15 12 9 6 4 1 2 4 5 6 6 8 9 7 9 10 11 14 15
8 10 9 5 11 5 11 3 10 14 13 11 9 7 6 4 2 4 5 5 4 4 5 6 9 12 15 17 17 15 14 12 9 6 4 2 1 2 2 4 4 6 5 5 6 8 9 10 11
10 11 9 10 7 9 11 13 9 13 15 14 12 10 8 7 6 6 7 8 8 10 12 13 15 16 16 16 16 15 13 10 9 8 5 2 0 3 3 4 5 6 7 7 7 8 9 11 14
8 10 12 8 4 4 13 15 12 17 15 16 14 13 11 9 8 8 9 12 13 16 17 18 19 20 18 17 17 16 15 15 11 8 7 5 4 2 3 3 4 4 5 7 9 9 10 13 15
13 15 16 13 4 4 12 17 15 17 23 21 18 16 14 11 9 10 12 15 17 19 20 20 20 20 19 18 18 17 16 15 14 13 10 9 7 6 5 5 6 7 7 8 9 9 9 12 16
16 16 14 14 2 10 12 19 22 24 19 14 15 15 14 14 13 12 14 15 18 19 20 20 19 17 16 17 19 20 20 18 15 13 10 9 7 6 6 6 6 7 8 9 11 12 13 14 15
16 14 14 12 7 10 6 10 12 11 16 17 18 19 19 18 16 15 16 18 20 22 23 23 23 23 23 21 18 15 15 16 14 12 10 7 5 4 4 4 5 6 8 9 10 12 13 14 14
8 2 7 11 14 15 18 9 13 7 14 18 23 24 23 22 20 20 20 24 26 27 27 26 24 23 20 16 14 13 13 13 13 11 9 7 5 5 6 8 9 9 10 12 13 13 15 15 15
10 5 2 3 8 12 18 16 14 13 14 13 23 26 27 26 24 23 26 28 29 29 28 26 24 21 18 16 14 12 11 12 12 10 7 5 5 5 6 7 8 10 11 12 13 14 15 16 16
12 7 4 5 6 8 1 13 17 2 5 9 24 30 29 26 25 24 29 29 29 28 27 25 22 19 18 16 15 14 12 10 8 7 5 4 3 3 4 5 6 7 8 10 11 12 14 15 15
18 17 6 6 6 5 2 9 7 3 8 6 20 27 28 28 27 28 31 30 30 29 27 24 22 19 18 16 13 12 11 9 6 4 4 4 3 2 2 4 5 7 8 10 12 13 14 15 16
7 12 13 4 2 4 7 10 7 7 7 8 21 28 31 32 31 33 32 32 33 31 28 25 22 19 18 16 14 12 10 11 9 8 6 5 4 3 3 5 6 8 9 11 12 14 15 16 18
9 8 6 6 6 8 9 14 10 9 15 14 20 28 29 30 31 34 37 37 35 32 29 26 22 19 17 16 16 15 13 11 10 9 7 6 4 4 4 5 8 10 11 12 14 16 17 18 18
7 9 8 6 9 4 5 7 9 13 16 20 21 28 34 36 36 37 40 39 37 34 32 29 25 22 20 19 18 16 15 15 13 11 8 7 5 3 5 7 10 12 14 14 15 16 18 19 20
17 14 20 6 6 6 4 11 3 3 11 21 24 28 31 35 36 37 39 40 38 37 34 31 28 25 22 21 20 19 19 17 15 12 10 8 5 5 5 8 11 13 15 16 17 18 19 21 22

GFSSGP_850_spd_048.txt.gz
Wind_Speed
2 2 2 4 2 3 5 3 3 4 8 12 8 16 13 22 7 5 8 2 11 9 9 13 11 11 10 10 9 8 7 7 8 8 8 8 9 10 11 12 13 13 12 10 10 10 10 9 9
2 4 4 5 2 5 4 6 9 8 11 7 5 12 20 10 17 13 5 4 13 10 6 12 11 10 9 9 8 7 6 7 6 7 7 6 7 9 9 10 11 12 12 9 9 8 8 7 7
4 4 4 2 2 5 5 7 8 10 5 2 5 12 9 6 10 5 5 9 12 12 5 8 10 9 8 8 7 5 5 4 5 6 5 5 7 7 9 10 11 12 13 11 9 8 8 7 6
4 3 4 1 7 6 9 8 13 11 7 3 10 11 10 7 3 7 7 11 7 11 9 9 9 9 6 7 7 4 3 3 4 4 4 4 5 6 9 11 12 13 13 12 11 10 9 8 7
7 4 3 1 8 4 8 11 2 6 5 7 2 10 10 9 11 8 7 10 5 11 8 9 11 10 7 6 6 4 3 3 2 2 2 2 2 3 7 9 10 11 12 13 12 11 10 9 8
4 3 3 3 6 6 7 6 5 5 10 3 13 12 5 8 7 9 7 10 7 12 11 7 11 11 10 8 7 5 3 3 2 1 1 1 0 2 5 8 10 11 12 12 12 11 10 9 8
4 2 6 6 7 5 6 5 4 5 7 8 3 6 11 6 8 7 8 8 10 8 9 8 9 12 11 11 9 8 6 5 3 2 1 1 1 2 4 6 8 11 12 12 12 12 11 10 8
4 2 4 3 5 6 8 6 5 6 5 6 1 3 7 6 6 5 5 4 5 6 9 12 14 12 16 13 11 10 10 8 7 5 4 4 3 4 4 4 9 12 11 9 11 11 11 10 9
2 2 3 3 4 5 12 5 2 2 7 5 2 2 7 5 5 5 2 3 5 7 8 9 9 10 13 17 12 13 12 9 8 6 6 6 5 4 2 4 8 10 10 10 13 11 10 9 8
2 2 6 8 8 4 11 7 12 4 9 5 4 3 3 4 9 9 12 8 7 7 9 11 12 12 12 15 16 7 10 10 7 6 6 6 5 4 2 4 7 8 9 8 9 12 12 13 12
1 2 6 6 8 9 9 2 3 4 4 9 11 7 5 5 8 8 7 8 8 8 10 10 13 14 13 13 14 15 9 6 4 7 8 7 5 4 4 5 9 9 8 7 9 11 12 11 12
3 1 4 4 1 3 3 2 3 7 5 8 11 8 7 7 6 5 5 5 6 8 10 10 9 9 12 13 12 10 10 13 13 10 9 8 6 4 3 4 6 8 7 8 9 11 12 12 12
4 4 1 1 2 2 2 4 6 6 9 8 8 9 9 7 4 4 5 7 8 10 12 11 9 7 8 12 12 14 15 17 16 11 10 7 5 3 3 3 4 6 8 9 10 9 10 11 11
5 4 6 6 6 4 3 7 6 8 13 9 8 9 10 9 6 7 6 8 9 11 10 10 9 11 12 17 18 18 17 13 12 10 7 8 7 6 8 9 9 10 9 8 6 10 13 9 9
2 4 7 12 10 3 7 7 8 12 14 12 11 11 10 8 7 7 7 9 9 9 8 8 9 10 14 16 18 17 15 14 8 6 7 6 8 10 7 3 4 6 9 7 8 10 11 8 11
4 4 3 3 16 5 6 7 6 18 15 14 13 10 9 8 7 8 9 9 9 6 6 6 8 11 14 17 18 18 15 14 11 9 8 6 4 2 2 1 1 0 2 1 3 3 7 8 8
6 5 7 4 13 6 8 5 9 13 16 17 16 13 11 11 9 9 9 8 6 6 5 7 8 12 16 18 17 17 16 14 11 10 10 9 6 5 4 3 1 1 2 2 3 5 7 8 10
7 6 7 6 8 7 7 11 6 17 19 19 19 17 14 11 12 10 8 8 7 6 8 10 14 17 17 17 17 17 15 13 13 11 10 7 6 4 3 4 3 1 1 2 3 4 7 8 11
9 8 8 5 4 6 9 11 10 23 22 21 22 21 18 15 16 11 9 10 9 11 13 15 18 19 17 17 17 16 15 14 15 13 10 10 10 8 6 5 4 4 4 6 6 6 7 9 11
10 10 9 8 8 3 7 11 9 16 21 32 30 26 23 22 16 13 13 14 15 16 17 20 22 22 22 20 19 17 17 17 14 15 15 13 11 9 7 7 6 7 7 8 9 10 12 13 15
8 8 7 8 5 4 6 8 12 11 25 28 28 27 26 28 20 18 19 20 21 21 22 23 23 22 20 19 19 20 20 20 19 17 15 14 11 9 7 7 7 7 7 8 10 11 12 14 14
9 7 11 7 4 4 7 5 6 9 13 16 27 23 27 25 21 21 23 24 25 26 25 25 24 21 20 20 22 24 23 21 18 16 13 11 9 7 6 6 6 7 9 9 11 13 14 14 15
5 4 2 1 6 5 8 9 9 15 18 13 20 29 26 27 27 26 26 27 27 26 27 26 25 25 27 27 24 21 20 19 17 14 12 10 8 6 5 6 7 8 10 12 13 13 15 17 16
8 5 2 1 1 6 12 13 7 13 14 7 19 28 30 30 28 26 27 28 30 30 28 28 29 29 26 23 20 18 17 16 15 13 10 8 7 5 5 6 7 8 9 11 12 13 13 13 14
5 6 2 2 2 7 1 9 16 4 2 6 18 30 34 34 33 32 33 33 33 34 33 32 30 28 25 23 21 19 17 15 13 11 9 7 5 4 4 4 5 6 7 8 9 11 13 14 14
9 9 5 7 5 4 3 7 6 2 9 3 27 32 34 36 35 36 35 36 37 37 36 34 32 30 26 24 22 20 18 16 13 10 8 5 2 0 1 2 2 4 6 8 9 10 11 12 12
5 9 9 3 2 2 6 7 7 5 3 4 21 31 33 37 37 38 38 39 40 39 37 35 33 30 27 24 21 20 18 14 11 8 6 7 6 5 4 2 3 5 6 8 9 11 12 12 13
4 5 3 2 3 6 5 9 10 6 11 8 15 28 32 35 37 39 40 41 40 39 36 35 32 29 27 25 22 20 17 14 12 11 11 10 8 6 4 3 4 5 8 10 12 13 13 13 14
4 4 5 5 5 4 5 8 3 13 14 18 17 30 37 40 41 43 43 44 43 40 39 37 34 31 29 27 24 21 18 16 16 15 13 11 9 6 5 4 4 6 10 11 13 13 13 14 14
7 9 10 5 7 7 2 20 2 5 9 20 23 29 33 38 41 43 45 46 44 43 42 39 36 34 30 27 24 22 20 20 17 16 15 13 10 8 6 4 5 8 9 10 12 14 15 16 17